Temperature
15 15 15 15 16 16 16 16 16 16 16 16 16 16 16 16 16 16 16 16 16 16 15 15 15 15 15 15 15 15 15 15 15 15 15 15 15 15 15 15 15 15 15
15 15 15 15 16 16 16 16 16 16 16 16 16 16 16 16 16 16 15 15 16 15 15 15 15 15 15 15 15 15 15 15 15 15 15 15 15 15 15 15 15 14 14
15 15 15 15 15 16 16 16 16 16 16 16 16 16 16 15 15 15 15 15 15 15 15 15 15 15 15 15 15 15 15 15 15 15 15 15 15 15 15 15 14 14 14
15 15 15 15 15 15 16 15 15 15 15 15 15 15 15 15 15 15 15 15 15 15 15 15 15 15 15 15 15 15 15 15 14 14 14 14 14 14 14 14 14 14 14
15 15 15 15 15 15 15 15 15 15 15 15 15 15 15 15 15 15 15 15 15 15 15 15 15 15 15 15 15 15 15 15 14 14 14 14 14 14 14 14 14 14 14
14 14 15 15 15 15 15 15 15 15 15 15 15 15 15 15 15 15 15 15 15 14 15 15 15 15 15 15 15 15 15 14 14 14 14 14 14 14 14 14 14 14 14
14 14 14 14 15 15 15 15 15 15 15 15 15 15 15 15 15 15 15 14 14 14 14 14 14 14 14 14 14 14 14 14 14 14 14 14 14 14 14 14 14 14 14
14 14 14 14 14 14 14 15 15 15 15 15 15 15 15 15 15 14 14 14 14 14 14 14 14 14 14 14 14 14 14 14 14 14 14 14 14 14 14 14 14 14 14
14 14 14 14 14 14 14 14 14 14 14 14 14 14 14 14 14 14 14 14 14 14 14 14 13 14 14 13 14 14 14 14 14 14 14 14 14 14 14 14 14 14 14
14 14 14 14 14 14 14 14 14 14 14 14 14 14 14 14 14 14 14 13 13 13 13 13 13 13 13 13 13 13 13 13 13 14 14 14 14 13 14 14 14 14 14
13 13 14 14 14 14 14 14 14 14 14 14 14 14 13 13 13 13 13 13 13 13 13 13 13 13 13 13 13 13 13 13 13 13 13 13 13 13 13 13 13 13 13
13 13 13 13 13 13 13 13 13 13 13 13 13 13 13 13 13 13 13 13 13 13 13 13 13 13 13 13 13 13 13 13 13 13 13 13 13 13 13 13 13 13 13
13 13 13 13 13 13 13 13 13 13 13 13 13 13 13 13 13 13 13 13 13 13 13 13 12 12 12 12 12 12 12 12 12 12 12 12 12 12 12 12 13 13 13
12 13 13 13 13 13 13 13 13 13 13 13 13 13 13 12 12 12 12 12 12 12 12 12 12 12 12 12 12 12 12 12 12 12 12 12 12 12 12 12 12 12 12
12 12 12 12 12 13 13 13 13 13 13 12 12 12 12 12 12 12 12 12 12 12 12 12 12 12 12 12 12 12 12 12 11 11 11 11 11 11 12 12 12 12 12
12 12 12 12 12 12 12 12 12 12 12 12 12 12 12 12 12 12 12 12 12 12 11 11 11 12 11 11 11 11 11 11 11 11 11 11 11 11 11 11 11 11 11
12 12 12 12 12 12 12 12 12 12 12 12 12 11 11 11 11 11 11 11 11 11 11 11 11 11 11 11 11 11 11 11 11 11 10 10 10 10 10 11 11 11 11
12 12 12 12 12 12 12 12 12 12 11 11 11 11 11 11 11 11 11 11 11 11 11 11 11 11 11 11 10 10 10 10 10 10 10 10 10 10 10 10 10 10 10
11 11 11 11 11 11 11 11 11 11 11 11 11 11 11 11 11 10 10 10 10 10 10 10 10 10 10 10 10 10 10 9 9 9 9 9 9 9 9 9 9 9 9
11 11 11 11 11 11 11 11 11 11 11 11 10 10 10 10 10 10 10 10 10 10 10 10 10 10 10 9 9 9 9 9 9 9 9 9 9 9 9 9 9 9 9
11 11 11 11 11 11 10 11 10 10 10 10 10 10 10 10 10 10 9 9 9 9 9 9 9 9 9 9 9 9 8 8 8 8 8 8 8 8 8 8 8 8 8
11 11 11 11 10 10 10 10 10 10 10 10 10 9 9 9 9 9 9 9 9 9 9 9 9 9 8 8 8 8 8 8 7 8 8 7 7 7 7 7 7 7 7
11 11 11 10 10 10 10 10 10 10 9 9 9 9 9 9 9 8 8 8 8 8 8 8 8 8 8 8 7 7 7 7 7 7 7 7 6 6 6 6 6 6 6
11 10 10 10 10 10 9 9 9 9 9 9 9 9 9 8 8 8 8 8 8 8 8 8 7 7 7 7 7 6 6 6 5 5 6 6 6 6 6 6 5 5 5
10 10 10 10 9 9 9 9 9 9 9 9 8 8 8 8 8 8 8 8 7 7 7 7 7 7 7 6 6 6 6 5 5 4 5 6 6 5 5 5 5 5 5
10 10 10 9 9 9 9 9 9 8 8 8 8 8 8 8 8 8 7 7 7 7 7 7 7 6 6 6 6 5 5 5 4 4 4 4 4 5 4 4 4 4 4
Wind_Speed
2 2 6 8 8 9 9 9 10 10 10 10 9 9 9 9 9 9 9 9 8 8 9 8 8 8 7 7 5 5 5 5 5 5 5 6 5 5 5 5 6 6 6
5 4 7 9 9 9 9 9 9 9 9 9 9 9 9 9 8 8 8 9 9 8 8 8 8 7 7 7 6 4 4 4 4 4 4 4 4 3 3 3 4 4 4
6 6 8 9 9 10 9 9 9 9 9 9 9 9 9 9 8 8 8 8 8 8 8 8 7 7 7 6 6 5 4 3 2 2 3 2 2 1 1 2 2 3 3
6 6 8 9 10 10 10 9 9 9 9 9 9 9 8 8 8 8 8 8 8 8 8 8 8 7 7 6 6 5 4 4 2 1 1 1 0 0 1 2 2 2 2
6 7 8 10 10 10 9 9 9 9 9 9 8 8 8 8 8 8 8 8 8 8 8 8 8 7 7 6 6 6 5 4 3 2 0 1 2 2 2 2 3 3 3
6 8 9 10 10 10 9 9 9 9 8 8 8 8 8 8 8 8 8 9 9 9 8 8 8 8 7 6 6 6 6 5 3 2 1 2 3 3 3 3 4 4 4
6 8 9 10 9 10 9 8 9 9 9 8 8 8 8 8 8 9 9 9 9 8 8 8 8 8 8 7 6 6 6 5 3 2 2 3 4 5 5 5 5 5 6
7 8 9 10 10 10 9 9 8 9 9 9 9 9 9 9 9 9 9 9 9 9 9 9 9 9 8 8 7 7 6 6 3 3 3 4 5 5 6 6 6 6 7
8 8 9 9 10 10 10 10 9 9 10 9 9 10 10 10 9 10 9 9 9 9 9 9 9 9 9 9 8 7 7 6 4 3 3 4 5 6 6 7 7 7 7
6 6 7 8 9 10 10 10 10 10 10 10 10 10 10 10 10 10 10 10 10 10 10 10 10 9 9 9 9 9 7 6 5 4 4 5 6 6 7 7 7 7 8
5 5 5 6 8 8 9 9 10 10 9 10 10 10 9 9 9 9 10 11 11 11 10 11 11 11 10 10 10 9 8 6 5 4 5 6 7 6 6 6 7 7 8
4 3 4 5 6 7 7 8 9 9 9 9 9 9 9 9 8 8 9 10 11 11 11 11 11 11 10 9 9 9 7 7 5 5 5 7 6 6 6 6 6 7 7
3 3 3 4 5 6 6 6 7 7 8 8 9 8 8 8 8 8 8 9 9 10 10 10 10 10 9 8 8 8 7 7 5 5 6 7 7 6 7 7 7 7 7
4 3 3 3 4 5 5 5 5 5 6 6 7 8 7 6 6 6 6 7 7 7 7 8 7 8 8 8 7 7 7 6 6 5 6 7 7 7 7 7 7 7 6
4 3 2 3 3 4 4 4 4 4 5 5 6 7 7 5 3 5 5 6 7 7 7 6 6 6 6 7 7 6 6 6 6 5 6 8 9 9 8 9 8 8 7
4 4 3 3 3 4 3 3 3 4 5 6 6 7 7 5 4 4 4 5 6 7 7 6 5 5 4 5 5 6 5 5 6 6 6 8 10 11 10 10 10 9 9
4 3 3 3 3 3 3 3 3 3 4 5 5 6 7 6 5 4 3 3 6 7 7 6 6 5 4 4 5 5 5 5 5 6 7 7 8 10 11 11 11 11 11
4 3 2 3 3 3 3 3 3 3 3 4 4 5 6 6 6 5 3 3 6 6 6 3 3 4 4 5 4 4 4 4 4 6 7 7 7 8 10 12 11 12 12
4 4 3 3 3 3 3 3 3 3 3 3 4 4 5 6 6 5 4 4 5 5 4 4 3 3 3 5 4 3 3 3 3 5 6 8 8 8 8 10 12 12 13
3 3 3 2 2 3 2 2 2 2 2 2 3 3 4 4 5 4 3 4 5 3 3 3 3 3 2 4 3 3 3 3 3 4 5 6 8 9 9 10 10 11 13
2 2 2 2 2 2 1 1 1 0 1 1 2 3 3 3 3 3 3 3 3 3 3 3 2 3 3 4 3 3 3 3 3 3 4 4 6 8 9 10 9 9 10
3 3 2 3 2 2 2 2 1 1 0 1 1 2 3 3 3 2 2 1 2 2 4 4 3 2 3 4 2 2 3 3 3 4 3 4 5 6 7 8 9 9 9
3 3 3 3 3 3 3 2 1 1 1 1 1 1 2 2 2 1 1 1 1 1 2 2 2 2 2 2 2 1 1 2 3 3 3 4 4 4 4 6 8 9 10
4 3 2 2 2 2 3 3 3 2 2 2 2 1 2 2 1 1 1 0 0 0 1 2 1 1 0 1 2 1 1 1 1 3 3 2 4 4 4 4 6 7 9
2 2 2 2 2 2 3 4 3 3 3 2 2 2 2 2 2 2 1 1 1 1 1 1 1 1 0 1 1 1 1 0 1 2 3 3 3 2 2 2 3 5 8
0 0 1 2 3 2 3 3 4 5 4 3 3 3 3 2 2 2 2 2 2 1 2 1 1 1 1 1 1 1 1 1 1 2 3 3 4 3 2 1 2 3 6
Wind_Direction
166 175 139 125 114 104 95 91 87 83 81 79 77 73 70 67 64 60 58 57 53 49 49 49 47 47 48 52 60 70 68 65 68 76 78 76 74 74 78 86 82 80 83
145 137 129 127 117 108 100 94 89 86 82 79 76 71 69 65 63 60 56 54 51 48 45 43 41 39 40 42 43 52 64 69 79 82 82 80 77 75 80 89 96 96 92
126 123 119 122 117 109 102 95 90 86 82 78 75 70 66 63 60 56 54 52 48 45 42 39 36 33 31 34 35 37 40 47 78 105 95 86 83 93 117 118 120 118 111
118 114 117 114 113 109 104 98 92 86 81 76 72 68 64 61 57 53 50 49 45 42 39 36 33 29 27 28 24 22 22 25 36 105 112 96 160 190 195 179 175 171 165
97 101 114 112 107 107 104 100 93 87 81 75 70 66 63 59 56 52 49 47 44 40 35 31 29 27 25 23 17 9 5 11 19 17 214 248 248 256 252 235 220 209 199
91 97 113 112 108 104 103 100 94 87 80 75 71 67 63 60 56 52 48 46 42 37 32 28 25 23 19 15 11 7 2 2 0 359 297 257 251 254 257 246 234 227 221
100 93 106 111 108 103 98 98 92 85 78 74 71 66 62 60 57 52 48 44 39 34 30 26 23 20 17 11 7 6 7 360 357 343 307 273 258 260 264 253 241 233 227
106 91 97 105 104 101 95 88 87 82 75 71 68 63 59 55 52 47 42 39 34 30 27 24 20 17 13 11 8 6 1 0 351 333 306 285 271 270 271 264 252 248 240
91 87 83 89 93 92 88 83 78 79 74 69 66 64 60 56 52 48 42 36 30 25 21 19 17 16 16 14 9 3 359 358 356 327 306 293 288 281 278 270 262 257 252
79 77 77 79 84 85 83 81 77 74 74 69 65 63 60 56 51 47 41 37 32 27 22 18 16 15 15 14 11 7 2 360 349 326 308 298 299 293 283 281 274 266 261
75 62 70 75 77 84 85 80 76 70 69 67 63 61 57 50 46 43 39 37 34 30 25 22 20 18 16 12 9 8 6 357 343 326 310 307 307 304 299 293 290 280 271
102 80 65 73 79 81 84 75 69 65 62 60 57 56 52 50 46 44 38 36 33 29 25 23 21 19 17 11 7 7 4 353 349 332 324 325 320 314 310 307 302 296 284
130 101 74 71 83 85 81 76 66 62 57 54 53 51 51 47 42 37 32 28 25 24 20 16 18 15 12 8 3 1 359 356 349 341 337 340 335 329 324 319 314 308 296
130 118 97 80 88 85 83 78 71 64 55 48 47 49 50 42 34 28 27 20 20 16 14 14 11 5 5 4 1 359 357 357 352 352 353 355 353 348 341 336 330 322 311
142 137 121 104 95 92 83 74 70 63 58 51 47 47 52 48 35 27 23 19 15 13 11 5 4 1 359 359 2 3 356 358 359 5 5 14 14 9 4 357 350 344 337
157 153 138 122 110 107 98 86 73 66 63 54 46 42 49 49 41 34 24 18 12 7 2 358 356 352 349 354 357 359 354 2 6 16 16 18 21 19 15 12 7 3 358
161 151 146 137 115 110 102 92 80 68 68 56 44 42 46 46 43 39 30 20 8 4 2 1 1 1 5 4 357 356 4 12 13 21 23 23 19 19 20 19 16 13 9
149 145 147 129 116 111 108 96 81 70 67 58 48 39 41 43 44 43 36 17 7 8 8 7 8 5 6 1 353 355 5 11 21 29 34 32 27 23 21 23 20 19 15
158 152 146 130 129 120 114 101 86 73 62 51 48 40 33 38 43 46 36 13 11 15 14 8 14 12 0 354 348 1 6 12 23 38 38 33 31 29 24 23 25 26 23
152 149 147 135 132 115 104 88 71 55 39 34 28 25 27 29 40 45 39 19 19 20 13 10 7 10 3 345 349 9 10 19 33 38 35 36 33 32 30 31 29 26 24
152 160 165 159 165 128 109 123 113 304 317 3 1 6 11 16 35 47 40 23 23 23 7 0 3 10 7 356 6 1 2 21 39 39 36 38 32 31 33 34 31 27 20
191 193 190 197 189 166 157 160 157 160 257 257 323 351 356 359 10 32 56 29 17 16 9 7 15 8 3 17 24 6 346 345 11 21 22 34 27 29 33 31 30 26 22
214 209 211 211 204 187 168 129 105 55 359 335 320 308 321 327 341 6 17 26 17 22 350 346 5 26 353 357 29 60 42 302 316 330 5 23 18 17 17 21 26 21 18
230 223 221 212 212 202 174 171 181 203 233 245 248 263 298 314 307 298 298 338 356 347 320 326 14 8 47 333 341 18 171 202 285 313 321 356 7 6 4 12 14 14 15
218 216 222 227 237 220 192 190 197 222 230 250 260 275 283 287 288 276 260 249 261 271 277 299 325 337 191 233 262 287 285 289 217 238 291 318 338 329 339 357 6 7 10
157 219 237 248 264 245 210 201 206 220 234 252 263 267 276 275 272 266 255 242 244 251 258 264 267 268 246 233 234 220 214 231 239 235 263 294 303 295 309 316 4 6 3
Height
1530 1532 1533 1535 1536 1537 1537 1538 1538 1538 1539 1539 1539 1539 1540 1540 1540 1540 1540 1540 1540 1540 1540 1540 1540 1540 1539 1540 1540 1539 1539 1540 1540 1540 1540 1540 1540 1540 1540 1540 1540 1541 1541
1529 1531 1533 1534 1536 1536 1537 1538 1538 1538 1539 1539 1539 1539 1539 1539 1540 1540 1540 1540 1539 1539 1539 1539 1539 1539 1539 1539 1539 1539 1539 1539 1539 1540 1540 1540 1540 1540 1540 1540 1540 1541 1541
1528 1531 1532 1534 1535 1536 1537 1538 1538 1538 1539 1539 1539 1539 1539 1539 1539 1539 1539 1539 1539 1539 1539 1539 1539 1539 1539 1539 1539 1539 1539 1539 1539 1539 1540 1540 1540 1540 1540 1540 1540 1540 1541
1529 1530 1532 1534 1535 1536 1537 1537 1538 1538 1538 1539 1539 1539 1539 1539 1539 1539 1539 1539 1538 1538 1538 1538 1538 1538 1538 1538 1538 1538 1538 1538 1539 1539 1539 1539 1539 1540 1540 1540 1540 1540 1540
1529 1530 1532 1534 1535 1536 1537 1537 1538 1538 1538 1538 1539 1539 1538 1538 1538 1538 1538 1538 1538 1537 1537 1537 1537 1537 1537 1537 1537 1537 1537 1538 1538 1538 1538 1538 1539 1539 1539 1539 1539 1539 1540
1529 1531 1532 1534 1535 1536 1537 1537 1538 1538 1538 1538 1538 1538 1538 1538 1538 1537 1537 1537 1537 1537 1536 1536 1536 1536 1536 1536 1536 1536 1536 1536 1537 1537 1537 1537 1538 1538 1538 1538 1539 1539 1539
1529 1531 1532 1534 1535 1536 1536 1537 1537 1538 1538 1538 1538 1538 1538 1537 1537 1537 1537 1537 1536 1536 1535 1535 1535 1535 1534 1534 1534 1534 1535 1535 1535 1535 1536 1536 1536 1537 1537 1537 1537 1537 1538
1529 1530 1532 1534 1535 1535 1536 1537 1537 1537 1538 1538 1538 1538 1537 1537 1537 1536 1536 1536 1535 1535 1535 1534 1534 1533 1533 1533 1533 1533 1533 1533 1533 1533 1534 1534 1535 1535 1535 1535 1535 1536 1536
1529 1530 1532 1533 1534 1535 1536 1536 1537 1537 1537 1537 1537 1537 1537 1537 1536 1536 1536 1535 1535 1534 1534 1533 1532 1532 1532 1531 1531 1531 1531 1531 1531 1531 1532 1532 1532 1533 1533 1533 1533 1533 1534
1528 1530 1531 1533 1534 1535 1535 1536 1536 1537 1537 1537 1537 1537 1537 1536 1536 1535 1535 1534 1534 1533 1533 1532 1531 1531 1530 1530 1529 1529 1529 1529 1529 1529 1529 1529 1530 1530 1530 1530 1531 1531 1531
1528 1530 1531 1532 1533 1534 1535 1535 1536 1536 1537 1537 1537 1536 1536 1536 1535 1535 1534 1533 1533 1532 1531 1531 1530 1529 1529 1528 1528 1527 1527 1527 1527 1527 1527 1527 1527 1527 1528 1528 1528 1528 1528
1527 1529 1530 1532 1533 1534 1534 1535 1535 1536 1536 1536 1536 1536 1536 1535 1534 1534 1533 1532 1532 1531 1530 1529 1529 1528 1527 1527 1526 1526 1525 1525 1525 1524 1524 1524 1524 1525 1525 1525 1525 1525 1525
1527 1528 1529 1531 1532 1533 1534 1534 1535 1535 1535 1536 1535 1535 1535 1534 1534 1533 1532 1531 1531 1530 1529 1528 1527 1526 1526 1525 1524 1523 1523 1522 1522 1522 1522 1522 1522 1522 1522 1522 1522 1522 1522
1526 1527 1529 1530 1531 1532 1533 1533 1534 1534 1534 1535 1535 1534 1534 1533 1533 1532 1531 1530 1529 1528 1527 1526 1526 1525 1524 1523 1522 1521 1521 1520 1519 1519 1519 1519 1519 1519 1519 1519 1519 1519 1519
1526 1527 1528 1529 1530 1531 1532 1532 1533 1533 1533 1533 1533 1533 1533 1532 1532 1531 1530 1529 1528 1527 1526 1525 1524 1523 1522 1521 1520 1519 1518 1518 1517 1517 1516 1516 1516 1516 1516 1516 1516 1516 1516
1525 1526 1527 1528 1529 1530 1531 1531 1532 1532 1532 1532 1532 1532 1531 1531 1530 1530 1529 1528 1527 1526 1525 1524 1523 1521 1520 1519 1518 1517 1516 1515 1515 1514 1514 1514 1514 1513 1513 1513 1513 1513 1513
1524 1525 1526 1527 1528 1529 1530 1530 1530 1530 1531 1531 1531 1530 1530 1529 1529 1528 1528 1527 1526 1525 1524 1522 1521 1520 1519 1517 1516 1515 1514 1513 1512 1512 1511 1511 1511 1511 1510 1510 1510 1509 1509
1523 1524 1526 1527 1527 1528 1528 1529 1529 1529 1529 1529 1529 1529 1528 1528 1527 1527 1526 1525 1524 1523 1522 1521 1519 1518 1517 1515 1514 1513 1512 1511 1511 1510 1509 1509 1508 1508 1507 1507 1507 1506 1506
1522 1523 1524 1525 1526 1527 1527 1527 1527 1528 1528 1528 1528 1527 1527 1527 1526 1525 1525 1524 1523 1521 1520 1519 1518 1516 1515 1513 1512 1511 1510 1509 1509 1508 1507 1507 1506 1505 1505 1504 1504 1503 1503
1521 1522 1523 1524 1525 1525 1525 1526 1526 1526 1526 1526 1526 1526 1526 1525 1524 1524 1523 1522 1521 1520 1519 1518 1516 1515 1513 1512 1510 1509 1508 1507 1507 1506 1505 1505 1504 1503 1502 1501 1501 1500 1500
1519 1521 1521 1522 1523 1524 1524 1524 1524 1525 1525 1525 1524 1524 1524 1523 1522 1522 1521 1521 1519 1518 1517 1516 1515 1513 1512 1510 1509 1508 1507 1506 1505 1504 1504 1503 1502 1501 1500 1499 1498 1497 1496
1518 1519 1520 1521 1522 1522 1523 1523 1523 1523 1523 1523 1523 1523 1522 1522 1521 1520 1520 1519 1518 1517 1516 1514 1513 1512 1510 1509 1508 1506 1505 1505 1503 1503 1502 1501 1500 1499 1498 1497 1496 1495 1493
1516 1517 1518 1519 1520 1521 1521 1521 1521 1521 1521 1521 1521 1521 1520 1520 1519 1518 1517 1517 1516 1515 1514 1513 1511 1510 1509 1508 1507 1506 1505 1503 1502 1501 1500 1499 1498 1497 1496 1494 1493 1492 1491
1514 1515 1517 1518 1518 1519 1519 1519 1519 1519 1519 1519 1518 1518 1518 1517 1516 1516 1515 1514 1513 1512 1511 1511 1509 1508 1507 1506 1505 1504 1504 1502 1501 1498 1498 1497 1496 1494 1493 1492 1490 1489 1488
1512 1513 1515 1516 1516 1516 1516 1517 1517 1516 1517 1516 1516 1515 1515 1514 1513 1513 1512 1511 1511 1510 1509 1508 1507 1506 1505 1504 1503 1501 1501 1500 1499 1497 1494 1493 1492 1491 1490 1489 1487 1486 1484
1511 1512 1512 1513 1513 1514 1514 1514 1514 1514 1514 1513 1513 1512 1512 1511 1511 1510 1509 1508 1508 1507 1506 1505 1504 1503 1502 1501 1500 1499 1498 1497 1496 1494 1492 1490 1488 1487 1487 1486 1484 1483 1481